Weather History for KCSQ - December, 2013

Change the Weather History Date:

Wednesday, December 18, 2013

  Actual Average Record
Temperature  
Mean Temperature 37 °F -  
Max Temperature 53 °F 35 °F 62 °F (1976)
Min Temperature 21 °F 15 °F -18 °F (1985)
Degree Days  
Heating Degree Days 28    
Moisture  
Dew Point 26 °F    
Average Humidity 62    
Maximum Humidity 81    
Minimum Humidity 44    
Precipitation  
Precipitation 0.00 in - - ()
Sea Level Pressure  
Sea Level Pressure 29.86 in    
Wind  
Wind Speed 14 mph (SSW)    
Max Wind Speed 26 mph    
Max Gust Speed 36 mph    
Visibility 10 miles    
Events      
Averages and records for this station are not official NWS values.
T = Trace of Precipitation, MM = Missing Value Source: NWS Daily Summary

Daily Weather History Graph

Daily Weather History Graph

Search for Another Location

Airport or City:

Trip Planner

Search our weather history database for the weather conditions in past years. The results will help you decide how hot, cold, wet, or windy it might be!

Date:

Astronomy

Dec. 18, 2013 Rise Set
Actual Time 7:37 AM CST 4:51 PM CST
Civil Twilight 7:06 AM CST 5:22 PM CST
Nautical Twilight 6:31 AM CST 5:56 PM CST
Astronomical Twilight 5:58 AM CST 6:30 PM CST
Moon 6:24 PM CST (12/18) 8:17 AM CST (12/18)
Length of Visible Light 10h 15m
Length of Day
9h 13m
Full, 98% of the Moon is Illuminated
Dec 18
Full
Dec 25
Last Quarter
Jan 1
New
Jan 7
First Quarter
Jan 15
Full

Hourly Weather History & Observations

Time (CST) Temp. Windchill Dew Point Humidity Pressure Visibility Wind Dir Wind Speed Gust Speed Precip Events Conditions
12:15 AM 21.2 °F 10.9 °F 14.0 °F 74% 30.15 in 10.0 mi South 9.2 mph - N/A   Clear
12:35 AM 21.2 °F 11.7 °F 12.2 °F 68% 30.14 in 10.0 mi South 8.1 mph - N/A   Clear
12:55 AM 23.0 °F 13.9 °F 14.0 °F 68% 30.13 in 10.0 mi South 8.1 mph - N/A   Clear
1:15 AM 24.8 °F 14.6 °F 14.0 °F 64% 30.12 in 10.0 mi South 10.4 mph - N/A   Clear
1:35 AM 23.0 °F 12.4 °F 14.0 °F 68% 30.11 in 10.0 mi South 10.4 mph - N/A   Clear
1:55 AM 23.0 °F 13.1 °F 14.0 °F 68% 30.10 in 10.0 mi South 9.2 mph - N/A   Clear
2:15 AM 24.8 °F 14.0 °F 15.8 °F 69% 30.09 in 10.0 mi South 11.5 mph - N/A   Clear
2:35 AM 24.8 °F 14.0 °F 15.8 °F 69% 30.08 in 10.0 mi South 11.5 mph - N/A   Clear
2:55 AM 24.8 °F 13.4 °F 15.8 °F 69% 30.07 in 10.0 mi South 12.7 mph - N/A   Clear
3:15 AM 24.8 °F 12.4 °F 15.8 °F 69% 30.06 in 10.0 mi South 15.0 mph - N/A   Clear
3:35 AM 26.6 °F 14.7 °F 15.8 °F 64% 30.06 in 10.0 mi South 15.0 mph - N/A   Clear
3:55 AM 26.6 °F 15.2 °F 15.8 °F 64% 30.04 in 10.0 mi South 13.8 mph - N/A   Clear
4:15 AM 26.6 °F 15.2 °F 17.6 °F 69% 30.02 in 10.0 mi South 13.8 mph 20.7 mph N/A   Clear
4:35 AM 28.4 °F 17.0 °F 17.6 °F 64% 30.01 in 10.0 mi South 15.0 mph - N/A   Clear
4:55 AM 26.6 °F 14.3 °F 17.6 °F 69% 30.00 in 10.0 mi South 16.1 mph - N/A   Clear
5:15 AM 28.4 °F 16.2 °F 19.4 °F 69% 29.99 in 10.0 mi South 17.3 mph - N/A   Clear
5:35 AM 28.4 °F 15.8 °F 19.4 °F 69% 29.98 in 10.0 mi South 18.4 mph - N/A   Clear
5:55 AM 28.4 °F 15.8 °F 19.4 °F 69% 29.97 in 10.0 mi South 18.4 mph - N/A   Clear
6:15 AM 28.4 °F 15.8 °F 19.4 °F 69% 29.96 in 10.0 mi South 18.4 mph - N/A   Clear
6:35 AM 28.4 °F 15.4 °F 21.2 °F 74% 29.95 in 10.0 mi South 19.6 mph - N/A   Clear
6:55 AM 28.4 °F 15.8 °F 21.2 °F 74% 29.94 in 10.0 mi South 18.4 mph - N/A   Clear
7:15 AM 28.4 °F 15.8 °F 21.2 °F 74% 29.93 in 10.0 mi South 18.4 mph - N/A   Clear
7:35 AM 30.2 °F 17.8 °F 21.2 °F 69% 29.91 in 10.0 mi South 19.6 mph 25.3 mph N/A   Clear
7:55 AM 30.2 °F 18.1 °F 23.0 °F 75% 29.90 in 10.0 mi South 18.4 mph 25.3 mph N/A   Clear
8:15 AM 30.2 °F 18.1 °F 23.0 °F 75% 29.90 in 10.0 mi South 18.4 mph - N/A   Clear
8:35 AM 32.0 °F 20.1 °F 24.8 °F 75% 29.89 in 10.0 mi South 19.6 mph 26.5 mph N/A   Clear
8:55 AM 35.6 °F 24.8 °F 24.8 °F 65% 29.88 in 10.0 mi SSW 19.6 mph 26.5 mph N/A   Clear
9:15 AM 37.4 °F 26.6 °F 26.6 °F 65% 29.87 in 10.0 mi SSW 21.9 mph - N/A   Clear
9:35 AM 39.2 °F 29.3 °F 26.6 °F 61% 29.87 in 10.0 mi SSW 20.7 mph 32.2 mph N/A   Clear
9:55 AM 39.2 °F 29.8 °F 26.6 °F 61% 29.87 in 10.0 mi SSW 18.4 mph 27.6 mph N/A   Clear
10:15 AM 41.0 °F 31.1 °F 26.6 °F 57% 29.86 in 10.0 mi SSW 23.0 mph - N/A   Clear
10:35 AM 42.8 °F 34.5 °F 28.4 °F 57% 29.86 in 10.0 mi SSW 18.4 mph 27.6 mph N/A   Clear
10:55 AM 44.6 °F 36.9 °F 28.4 °F 53% 29.85 in 10.0 mi SSW 18.4 mph - N/A   Clear
11:15 AM 48.2 °F - 30.2 °F 50% 29.83 in 10.0 mi SW 18.4 mph 26.5 mph N/A   Clear
11:35 AM 48.2 °F - 30.2 °F 50% 29.82 in 10.0 mi SW 24.2 mph - N/A   Clear
11:55 AM 50.0 °F - 30.2 °F 47% 29.81 in 10.0 mi SW 17.3 mph 28.8 mph N/A   Clear
12:15 PM 51.8 °F - 30.2 °F 44% 29.80 in 10.0 mi SW 18.4 mph 27.6 mph N/A   Clear
12:35 PM 50.0 °F - 30.2 °F 47% 29.79 in 10.0 mi SW 26.5 mph 35.7 mph N/A   Clear
12:55 PM 50.0 °F - 30.2 °F 47% 29.77 in 10.0 mi SW 24.2 mph 33.4 mph N/A   Clear
1:15 PM 50.0 °F - 30.2 °F 47% 29.77 in 10.0 mi SW 15.0 mph 26.5 mph N/A   Clear
1:35 PM 50.0 °F - 30.2 °F 47% 29.76 in 10.0 mi SW 18.4 mph 24.2 mph N/A   Clear
1:55 PM 50.0 °F - 30.2 °F 47% 29.76 in 10.0 mi SW 16.1 mph 25.3 mph N/A   Clear
2:15 PM 50.0 °F - 30.2 °F 47% 29.75 in 10.0 mi SW 17.3 mph - N/A   Clear
2:35 PM 51.8 °F - 32.0 °F 47% 29.75 in 10.0 mi SW 13.8 mph - N/A   Clear
2:55 PM 51.8 °F - 32.0 °F 47% 29.74 in 10.0 mi SW 15.0 mph - N/A   Clear
3:15 PM 51.8 °F - 32.0 °F 47% 29.74 in 10.0 mi SSW 16.1 mph - N/A   Clear
3:35 PM 51.8 °F - 32.0 °F 47% 29.73 in 10.0 mi SSW 13.8 mph 20.7 mph N/A   Clear
3:55 PM 53.6 °F - 32.0 °F 44% 29.73 in 10.0 mi SSW 11.5 mph - N/A   Clear
4:15 PM 53.6 °F - 32.0 °F 44% 29.73 in 10.0 mi SW 12.7 mph 18.4 mph N/A   Clear
4:35 PM 53.6 °F - 32.0 °F 44% 29.73 in 10.0 mi SW 10.4 mph - N/A   Clear
4:55 PM 50.0 °F - 32.0 °F 50% 29.74 in 10.0 mi SSW 9.2 mph - N/A   Clear
5:15 PM 48.2 °F - 32.0 °F 54% 29.74 in 10.0 mi SSW 13.8 mph - N/A   Clear
5:35 PM 46.4 °F 40.7 °F 32.0 °F 57% 29.74 in 10.0 mi SSW 12.7 mph - N/A   Clear
5:55 PM 44.6 °F 38.8 °F 30.2 °F 57% 29.75 in 10.0 mi SSW 11.5 mph - N/A   Clear
6:15 PM 44.6 °F 38.8 °F 32.0 °F 61% 29.75 in 10.0 mi SSW 11.5 mph - N/A   Clear
6:35 PM 44.6 °F 37.8 °F 32.0 °F 61% 29.74 in 10.0 mi SSW 15.0 mph - N/A   Clear
6:55 PM 44.6 °F 38.1 °F 32.0 °F 61% 29.74 in 10.0 mi South 13.8 mph - N/A   Clear
7:15 PM 46.4 °F 40.4 °F 32.0 °F 57% 29.74 in 10.0 mi South 13.8 mph - N/A   Clear
7:35 PM 46.4 °F 40.7 °F 32.0 °F 57% 29.75 in 10.0 mi South 12.7 mph - N/A   Clear
7:55 PM 42.8 °F 36.6 °F 32.0 °F 66% 29.74 in 10.0 mi South 11.5 mph - N/A   Clear
8:15 PM 42.8 °F 36.2 °F 32.0 °F 66% 29.74 in 10.0 mi South 12.7 mph - N/A   Clear
8:35 PM 42.8 °F 36.6 °F 32.0 °F 66% 29.75 in 10.0 mi South 11.5 mph - N/A   Clear
8:55 PM 42.8 °F 37.5 °F 32.0 °F 66% 29.75 in 10.0 mi South 9.2 mph - N/A   Clear
9:15 PM 41.0 °F 34.3 °F 30.2 °F 65% 29.74 in 10.0 mi South 11.5 mph - N/A   Clear
9:35 PM 39.2 °F 32.0 °F 30.2 °F 70% 29.74 in 10.0 mi South 11.5 mph - N/A   Clear
9:55 PM 39.2 °F 32.0 °F 32.0 °F 75% 29.75 in 10.0 mi South 11.5 mph - N/A   Clear
10:15 PM 39.2 °F 32.0 °F 32.0 °F 75% 29.75 in 10.0 mi South 11.5 mph - N/A   Clear
10:35 PM 39.2 °F 32.0 °F 32.0 °F 75% 29.75 in 10.0 mi South 11.5 mph - N/A   Clear
10:55 PM 39.2 °F - 32.0 °F 75% 29.76 in 10.0 mi Calm Calm - N/A   Clear
11:15 PM 39.2 °F 35.0 °F 32.0 °F 75% 29.76 in 10.0 mi South 5.8 mph - N/A   Clear
11:35 PM 35.6 °F 30.7 °F 30.2 °F 81% 29.76 in 10.0 mi South 5.8 mph - N/A   Clear
11:55 PM 37.4 °F 32.1 °F 30.2 °F 75% 29.76 in 10.0 mi South 6.9 mph - N/A   Clear